Overview Statistics Trail Chart Weather Telemetry Raw packets
 

This is the latest recevied weather packets stored in our database for station/object PA5MB-15. If no packets are shown the sender has not sent any weather packets the latest 10 day(s).

<< 21 22 23 24 25 26 27 >>
Time Temp. Humidity Pressure Rain* Wind** Luminosity Snow
1777884025 16.67° C 92% 1014.7 hPa 0 mm - 20 W/m² -
1777883722 16.11° C 93% 1014.7 hPa 0 mm - 21 W/m² -
1777883430 16.11° C 93% 1014.6 hPa 0 mm - 17 W/m² -
1777883155 16.11° C 94% 1014.6 hPa 0 mm - 21 W/m² -
1777882831 15.56° C 94% 1014.6 hPa 0 mm - 25 W/m² -
1777882525 16.11° C 95% 1014.5 hPa 0 mm - 28 W/m² -
1777882231 15.56° C 96% 1014.5 hPa 0 mm - 28 W/m² -
1777881930 15.56° C 97% 1014.5 hPa 0 mm - 31 W/m² -
1777881624 15° C 98% 1014.5 hPa 0 mm - 23 W/m² -
1777881332 15° C 98% 1014.5 hPa 0 mm - 16 W/m² -
1777881031 15° C 98% 1014.5 hPa 0 mm - 14 W/m² -
1777880731 15° C 99% 1014.5 hPa 0 mm - 16 W/m² -
1777880443 15° C 99% 1014.5 hPa 0 mm - 21 W/m² -
1777880131 15° C 99% 1014.3 hPa 0 mm - 25 W/m² -
1777879831 14.44° C 99% 1014.3 hPa 0 mm - 19 W/m² -
1777879520 14.44° C 99% 1014.1 hPa 0 mm - 16 W/m² -
1777879231 15° C 99% 1014.1 hPa 0 mm - 21 W/m² -
1777878934 14.44° C 99% 1014.1 hPa 0 mm - 19 W/m² -
1777878631 14.44° C 99% 1014 hPa 0 mm - 17 W/m² -
1777878330 14.44° C 99% 1014 hPa 0 mm - 22 W/m² -
1777878022 14.44° C 99% 1014.1 hPa 0 mm - 21 W/m² -
1777877747 14.44° C 99% 1014.1 hPa 0 mm - 18 W/m² -
1777877431 14.44° C 99% 1014 hPa 0 mm - 17 W/m² -
1777877131 13.89° C 99% 1014 hPa 0 mm - 18 W/m² -
1777876828 13.89° C 99% 1013.9 hPa 0 mm - 18 W/m² -

* Rain latest hour (hover to see other rain measurements)
** Current wind speed in m/s (hover to see current wind gust speed)